TimeCDT,TemperatureF,Dew PointF,Humidity,Sea Level PressureIn,VisibilityMPH,Wind Direction,Wind SpeedMPH,Gust SpeedMPH,PrecipitationIn,Events,Conditions,WindDirDegrees,DateUTC
12:13 AM,68.0,64.4,88,30.05,10.0,WSW,4.6,-,N/A,,Clear,250,2013-09-11 05:13:00
12:32 AM,68.0,64.4,88,30.04,10.0,West,4.6,-,N/A,,Clear,270,2013-09-11 05:32:00
12:52 AM,68.0,64.4,88,30.05,10.0,West,6.9,-,N/A,,Clear,270,2013-09-11 05:52:00
1:13 AM,68.0,64.4,88,30.04,10.0,West,5.8,-,N/A,Rain,Light Rain,280,2013-09-11 06:13:00
1:32 AM,68.0,64.4,88,30.05,10.0,SW,3.5,-,N/A,Rain,Light Rain,230,2013-09-11 06:32:00
1:52 AM,68.0,64.4,88,30.05,10.0,West,3.5,-,N/A,,Scattered Clouds,270,2013-09-11 06:52:00
2:13 AM,68.0,64.4,88,30.05,10.0,WSW,3.5,-,N/A,,Clear,240,2013-09-11 07:13:00
2:32 AM,66.2,64.4,94,30.05,10.0,Calm,Calm,-,N/A,,Scattered Clouds,0,2013-09-11 07:32:00
2:52 AM,66.2,64.4,94,30.05,10.0,WSW,3.5,-,N/A,,Clear,240,2013-09-11 07:52:00
3:13 AM,66.2,62.6,88,30.06,10.0,WSW,4.6,-,N/A,,Clear,250,2013-09-11 08:13:00
3:32 AM,66.2,62.6,88,30.06,10.0,West,4.6,-,N/A,,Clear,260,2013-09-11 08:32:00
3:52 AM,64.4,62.6,94,30.05,10.0,West,4.6,-,N/A,,Clear,260,2013-09-11 08:52:00
4:12 AM,64.4,62.6,94,30.05,10.0,SW,4.6,-,N/A,,Clear,230,2013-09-11 09:12:00
4:32 AM,64.4,62.6,94,30.06,10.0,West,4.6,-,N/A,,Clear,270,2013-09-11 09:32:00
4:53 AM,64.4,62.6,94,30.06,10.0,Calm,Calm,-,N/A,,Clear,0,2013-09-11 09:53:00
5:12 AM,64.4,62.6,94,30.06,10.0,Calm,Calm,-,N/A,,Clear,0,2013-09-11 10:12:00
5:32 AM,64.4,60.8,88,30.07,10.0,West,4.6,-,N/A,,Clear,270,2013-09-11 10:32:00
5:53 AM,64.4,62.6,94,30.07,10.0,WSW,3.5,-,N/A,,Clear,240,2013-09-11 10:53:00
6:12 AM,62.6,62.6,100,30.07,10.0,Calm,Calm,-,N/A,,Clear,0,2013-09-11 11:12:00
6:32 AM,62.6,60.8,94,30.08,10.0,West,4.6,-,N/A,,Clear,270,2013-09-11 11:32:00
6:53 AM,62.6,60.8,94,30.08,7.0,West,5.8,-,N/A,,Clear,270,2013-09-11 11:53:00
7:12 AM,60.8,59.0,94,30.09,5.0,West,5.8,-,N/A,,Clear,260,2013-09-11 12:12:00
7:32 AM,60.8,60.8,100,30.09,5.0,WSW,4.6,-,N/A,,Clear,240,2013-09-11 12:32:00
7:53 AM,62.6,60.8,94,30.09,10.0,WSW,3.5,-,N/A,,Clear,250,2013-09-11 12:53:00
8:12 AM,64.4,60.8,88,30.09,10.0,WSW,5.8,-,N/A,,Clear,250,2013-09-11 13:12:00
8:32 AM,66.2,60.8,83,30.09,10.0,WSW,4.6,-,N/A,,Clear,250,2013-09-11 13:32:00
8:53 AM,69.8,62.6,78,30.09,10.0,West,4.6,-,N/A,,Clear,270,2013-09-11 13:53:00
9:12 AM,71.6,60.8,69,30.09,10.0,West,8.1,-,N/A,,Clear,270,2013-09-11 14:12:00
9:32 AM,73.4,60.8,65,30.09,10.0,West,10.4,-,N/A,,Clear,270,2013-09-11 14:32:00
9:52 AM,73.4,60.8,65,30.10,10.0,West,9.2,-,N/A,,Clear,270,2013-09-11 14:52:00
10:12 AM,77.0,60.8,57,30.10,10.0,West,9.2,-,N/A,,Clear,280,2013-09-11 15:12:00
10:32 AM,75.2,59.0,57,30.10,10.0,West,6.9,-,N/A,,Clear,280,2013-09-11 15:32:00
10:52 AM,75.2,60.8,61,30.10,10.0,WNW,8.1,-,N/A,,Clear,300,2013-09-11 15:52:00
11:12 AM,77.0,60.8,57,30.10,10.0,West,8.1,-,N/A,,Clear,280,2013-09-11 16:12:00
11:32 AM,77.0,60.8,57,30.10,10.0,WNW,8.1,-,N/A,,Clear,290,2013-09-11 16:32:00
11:52 AM,77.0,60.8,57,30.11,10.0,WNW,8.1,-,N/A,,Clear,300,2013-09-11 16:52:00
12:12 PM,78.8,57.2,47,30.11,10.0,WNW,9.2,-,N/A,,Clear,290,2013-09-11 17:12:00
12:32 PM,78.8,57.2,47,30.11,10.0,WNW,6.9,-,N/A,,Clear,300,2013-09-11 17:32:00
12:52 PM,80.6,53.6,39,30.11,10.0,WNW,9.2,-,N/A,,Clear,290,2013-09-11 17:52:00
1:12 PM,82.4,53.6,37,30.10,10.0,WNW,10.4,16.1,N/A,,Clear,290,2013-09-11 18:12:00
1:32 PM,82.4,51.8,35,30.10,10.0,NW,10.4,-,N/A,,Clear,320,2013-09-11 18:32:00
1:52 PM,80.6,53.6,39,30.10,10.0,WNW,8.1,-,N/A,,Clear,300,2013-09-11 18:52:00
2:12 PM,80.6,53.6,39,30.10,10.0,WNW,6.9,-,N/A,,Clear,290,2013-09-11 19:12:00
2:32 PM,82.4,51.8,35,30.10,10.0,NW,10.4,-,N/A,,Clear,320,2013-09-11 19:32:00
2:53 PM,82.4,53.6,37,30.09,10.0,WNW,9.2,-,N/A,,Clear,290,2013-09-11 19:53:00
3:12 PM,82.4,53.6,37,30.09,10.0,WNW,8.1,-,N/A,,Clear,290,2013-09-11 20:12:00
3:32 PM,84.2,51.8,33,30.09,10.0,WNW,10.4,-,N/A,,Clear,300,2013-09-11 20:32:00
3:53 PM,82.4,51.8,35,30.09,10.0,NW,9.2,-,N/A,,Clear,320,2013-09-11 20:53:00
4:12 PM,82.4,51.8,35,30.09,10.0,WNW,5.8,-,N/A,,Clear,290,2013-09-11 21:12:00
4:32 PM,82.4,51.8,35,30.09,10.0,NNW,4.6,-,N/A,,Clear,330,2013-09-11 21:32:00
4:52 PM,82.4,51.8,35,30.08,10.0,NW,5.8,-,N/A,,Clear,320,2013-09-11 21:52:00
5:12 PM,82.4,53.6,37,30.08,10.0,West,5.8,-,N/A,,Clear,280,2013-09-11 22:12:00
5:33 PM,80.6,57.2,45,30.08,10.0,SW,6.9,-,N/A,,Clear,230,2013-09-11 22:33:00
5:52 PM,80.6,57.2,45,30.08,10.0,WSW,8.1,-,N/A,,Clear,240,2013-09-11 22:52:00
6:12 PM,80.6,59.0,48,30.08,10.0,SW,5.8,-,N/A,,Clear,230,2013-09-11 23:12:00
6:33 PM,80.6,59.0,48,30.07,10.0,SW,4.6,-,N/A,,Clear,220,2013-09-11 23:33:00
6:52 PM,78.8,60.8,54,30.07,10.0,Calm,Calm,-,N/A,,Clear,0,2013-09-11 23:52:00
7:12 PM,78.8,62.6,57,30.07,10.0,Calm,Calm,-,N/A,,Clear,0,2013-09-12 00:12:00
7:33 PM,75.2,62.6,65,30.07,10.0,Calm,Calm,-,N/A,,Clear,0,2013-09-12 00:33:00
7:52 PM,75.2,62.6,65,30.08,10.0,Calm,Calm,-,N/A,,Clear,0,2013-09-12 00:52:00
8:12 PM,71.6,62.6,73,30.08,10.0,Calm,Calm,-,N/A,,Clear,0,2013-09-12 01:12:00
8:33 PM,69.8,60.8,73,30.09,10.0,WSW,3.5,-,N/A,,Clear,250,2013-09-12 01:33:00
8:52 PM,66.2,60.8,83,30.10,10.0,West,3.5,-,N/A,,Scattered Clouds,280,2013-09-12 01:52:00
9:12 PM,66.2,60.8,83,30.10,10.0,Calm,Calm,-,N/A,,Mostly Cloudy,0,2013-09-12 02:12:00
9:33 PM,66.2,60.8,83,30.11,10.0,West,4.6,-,N/A,,Overcast,280,2013-09-12 02:33:00
9:52 PM,66.2,60.8,83,30.12,10.0,WNW,3.5,-,N/A,,Overcast,300,2013-09-12 02:52:00
10:12 PM,69.8,57.2,64,30.13,10.0,NNW,9.2,-,N/A,,Scattered Clouds,330,2013-09-12 03:12:00
10:33 PM,66.2,57.2,73,30.13,10.0,NNW,8.1,-,N/A,,Scattered Clouds,330,2013-09-12 03:33:00
10:52 PM,68.0,53.6,60,30.14,10.0,NNW,10.4,-,N/A,,Mostly Cloudy,340,2013-09-12 03:52:00
11:12 PM,68.0,51.8,56,30.14,10.0,NNW,8.1,-,N/A,,Overcast,330,2013-09-12 04:12:00
11:33 PM,68.0,48.2,49,30.14,10.0,NNW,10.4,-,N/A,,Overcast,340,2013-09-12 04:33:00
11:52 PM,66.2,48.2,52,30.14,10.0,NNW,11.5,-,N/A,,Mostly Cloudy,340,2013-09-12 04:52:00